CZ-6A DEB, 60826

Orbit data source: Space-Track

CZ-6A DEB, 60826 is space debris in LEO originally from a launch on Tue, 06 Aug 2024 UTC launched from the Taiyaun Space Center, China (TSC). Debris objects in space refer to the collection of defunct objects orbiting the Earth. Examples of debris include non-operational satellites, rocket bodies, and fragments generated from explosions, collisions, or faulty payload assembly.

Loading next visibility...
Identifier
60826, 2024-140HD
Orbit
LEO
Country
Flag of CNCN / PRC
Related business
Manufacturer
SAST
Mission
Spacecraft
Bus & Motor
Unknown
Mass
Unknown
Launch date (UTC)
2024-08-06 (2 years ago)
Launch vehicle
Unknown
Launch site
Taiyaun Space Center, China (TSC)
Object type
Payload
Rocket body
Debris
Shape & HBR
Unknown shape, 0.1 m
Radar Cross Section
Medium (>0.1 m² and <1 m²)

Expand to show TLE details & history
Last TLE update: 12 hours ago

TLE from 12 hours ago
0 CZ-6A DEB
1 60826U 24140HD  26171.33712073  .00000760  00000-0  31024-3 0  9992
2 60826  88.9754 271.5242 0031944 113.2342 247.2221 14.26120817 96282
Epoch: 2026-06-20T08:05Z
TLE epoch observation values (Epoch: 2026-06-20T08:05:27.231Z)
Latitude
0.00004°
Longitude
-118.39246°
Altitude
816.736 km
Speed
7.44 km/s
True Right ascension
18h 06m 05s
True Declination
0° 00' 00"
Sunlit
Object was in full shadow at epoch
Visualization orbit readout
Latitude
Unknown
Longitude
Unknown
Altitude
Unknown
Speed
Unknown
Apparent Right ascension
Unknown
Apparent Declination
Unknown
Sunlit
N/A
Visualization observer readout
Local Sidereal Time
07:22:50
Azimuth
Unknown
Elevation
Unknown
Doppler factor
Unknown
Orbital elements
Apogee altitude
824.604 km
Perigee altitude
778.734 km
Semi-major axis
7,179.806 km
Eccentricity
0.00319
Inclination
88.9754°
RAAN
271.5242°
Arg. of periapsis
113.2342°
True anomaly
246.88512°
Mean anomaly
247.2221°
Eccentric anomaly
247.05356°
Mean motion
3.56758 °/min
Orbital period
100.91 mins
BSTAR
0.00031024
Loading maneuver chart data...
Computing Atmospheric mass density...
Loading historical data...
Loading historical data...
Loading historical data...
Loading historical data...
Loading historical data...
Loading historical data...
Loading historical data...

Documentation

Showing up to 5 results
|